Vorticity
6 6 3 5 6 4 4 6 4 4 4 9 2 6 5 3 4 4 4 3 3 3
7 6 5 6 5 6 5 5 4 5 7 5 6 4 5 6 6 3 6 4 4 5
6 4 4 4 5 6 6 5 2 5 6 5 4 4 5 6 8 12 6 4 7 4
7 6 5 4 5 4 7 5 5 5 7 8 5 3 5 8 6 11 4 6 6 9
10 12 11 13 15 13 14 16 17 17 16 9 5 9 7 5 6 6 9 7 8 3
11 8 10 11 11 9 9 9 11 12 16 17 15 8 8 8 8 7 9 7 5 6
10 11 9 7 7 7 7 2 3 8 10 13 15 12 7 7 7 7 5 6 5 5
-0 7 16 15 8 9 12 12 9 7 13 12 13 14 14 14 12 9 8 8 9 8
7 7 2 -5 6 13 10 17 20 18 15 16 15 11 10 11 9 13 14 15 12 18
3 16 16 18 22 21 21 16 13 14 17 24 28 26 23 20 19 19 14 16 11 11
26 11 13 8 11 14 8 3 7 11 16 7 10 7 8 10 14 8 9 5 4 8
19 19 18 16 14 18 13 8 6 11 12 7 9 1 4 2 4 4 6 9 11 16
16 15 15 11 10 10 11 12 9 10 10 9 9 2 -2 5 23 16 2 9 15 21
16 11 7 11 12 14 5 9 4 -3 10 10 15 14 24 16 7 7 8 -5 1 3
Height
5608 5612 5617 5623 5629 5633 5638 5644 5648 5653 5658 5662 5667 5671 5675 5679 5682 5686 5688 5692 5696 5700
5594 5599 5602 5610 5613 5621 5624 5630 5636 5641 5646 5651 5655 5658 5663 5666 5670 5675 5678 5681 5685 5689
5578 5585 5589 5595 5602 5608 5612 5616 5622 5627 5633 5637 5642 5645 5649 5654 5657 5662 5666 5669 5672 5676
5565 5570 5575 5581 5587 5593 5598 5603 5606 5613 5617 5623 5628 5632 5636 5640 5644 5649 5652 5656 5659 5662
5550 5555 5561 5567 5572 5578 5582 5587 5591 5597 5602 5607 5614 5618 5622 5627 5631 5634 5638 5641 5645 5647
5534 5540 5546 5552 5556 5562 5567 5573 5577 5582 5587 5591 5597 5603 5607 5612 5616 5619 5622 5626 5630 5633
5519 5525 5530 5536 5541 5546 5552 5557 5562 5568 5573 5577 5581 5586 5592 5596 5600 5604 5608 5611 5615 5618
5504 5510 5516 5521 5526 5531 5536 5541 5547 5552 5557 5562 5566 5571 5576 5581 5584 5588 5592 5596 5599 5602
5491 5496 5502 5508 5512 5518 5523 5528 5533 5538 5543 5548 5552 5556 5560 5565 5569 5573 5576 5580 5584 5587
5477 5483 5489 5495 5500 5505 5511 5516 5522 5526 5530 5535 5539 5544 5548 5552 5556 5560 5563 5566 5570 5573
5462 5469 5475 5481 5487 5492 5498 5503 5508 5512 5517 5522 5526 5531 5535 5540 5542 5546 5550 5553 5557 5559
5447 5455 5461 5467 5472 5478 5484 5489 5495 5501 5506 5510 5514 5519 5523 5526 5529 5532 5536 5540 5543 5546
5434 5441 5448 5453 5459 5465 5471 5476 5482 5487 5492 5497 5502 5507 5512 5514 5516 5519 5523 5527 5529 5532
5423 5430 5435 5441 5446 5453 5459 5464 5469 5475 5480 5484 5489 5494 5498 5501 5504 5507 5510 5513 5515 5518